• In Hungary
  • List of Countries
  • For 7 days
  • Water Temperature
  • Satellite Maps
  • Weather Map
  • News
  • Weather Widgets
  • user-avatar
    Login

    Hourly Weather Przywidz

    Today, 19 August, Sunday

    Time Temperature Precipitation Wind Pressure Humidity
    00:00 +16°C° 0 mm 2 mps 747 mmHg 77%
    01:00 +16°C° 0 mm 2 mps 747 mmHg 81%
    02:00 +16°C° 0 mm 2 mps 747 mmHg 83%
    03:00 +16°C° 0 mm 2 mps 747 mmHg 85%
    04:00 +16°C° 0 mm 2 mps 747 mmHg 87%
    05:00 +17°C° 0 mm 2 mps 747 mmHg 83%
    06:00 +18°C° 0 mm 3 mps 747 mmHg 79%
    07:00 +19°C° 0 mm 3 mps 747 mmHg 74%
    08:00 +21°C° 0 mm 3 mps 747 mmHg 66%
    09:00 +24°C° 0 mm 3 mps 747 mmHg 57%
    10:00 +25°C° 0 mm 3 mps 748 mmHg 48%
    11:00 +26°C° 0 mm 3 mps 747 mmHg 47%
    12:00 +26°C° 0 mm 3 mps 747 mmHg 46%
    13:00 +27°C° 0 mm 3 mps 747 mmHg 44%
    14:00 +27°C° 0 mm 3 mps 747 mmHg 46%
    15:00 +27°C° 0 mm 3 mps 747 mmHg 47%
    16:00 +27°C° 0 mm 3 mps 747 mmHg 48%
    17:00 +25°C° 0 mm 2 mps 746 mmHg 56%
    18:00 +23°C° 0 mm 2 mps 746 mmHg 63%
    19:00 +21°C° 0 mm 2 mps 746 mmHg 71%
    20:00 +20°C° 0 mm 2 mps 746 mmHg 74%
    21:00 +19°C° 0 mm 2 mps 745 mmHg 78%
    22:00 +18°C° 0 mm 2 mps 745 mmHg 82%
    23:00 +18°C° 0 mm 2 mps 745 mmHg 80%

    Tomorrow, 20 August, Monday

    Time Temperature Precipitation Wind Pressure Humidity
    00:00 +18°C° 0 mm 2 mps 744 mmHg 79%
    01:00 +18°C° 0 mm 3 mps 744 mmHg 78%
    02:00 +18°C° 0 mm 3 mps 744 mmHg 73%
    03:00 +18°C° 0 mm 3 mps 743 mmHg 69%
    04:00 +18°C° 0 mm 3 mps 743 mmHg 64%
    05:00 +19°C° 0 mm 4 mps 743 mmHg 62%
    06:00 +20°C° 0 mm 4 mps 743 mmHg 60%
    07:00 +21°C° 0 mm 4 mps 743 mmHg 58%
    08:00 +22°C° 0 mm 5 mps 743 mmHg 56%
    09:00 +25°C° 0 mm 5 mps 743 mmHg 54%
    10:00 +26°C° 0 mm 5 mps 743 mmHg 52%
    11:00 +26°C° 0.1 mm 6 mps 743 mmHg 54%
    12:00 +26°C° 0.1 mm 6 mps 742 mmHg 55%
    13:00 +26°C° 0.1 mm 6 mps 742 mmHg 57%
    14:00 +24°C° 0.1 mm 6 mps 742 mmHg 61%
    15:00 +23°C° 0.1 mm 6 mps 742 mmHg 66%
    16:00 +22°C° 0.1 mm 6 mps 742 mmHg 71%
    17:00 +21°C° 0.1 mm 6 mps 742 mmHg 71%
    18:00 +20°C° 0.1 mm 6 mps 742 mmHg 72%
    19:00 +19°C° 0.1 mm 5 mps 742 mmHg 72%
    20:00 +17°C° 0 mm 5 mps 742 mmHg 71%
    21:00 +16°C° 0 mm 5 mps 742 mmHg 71%
    22:00 +15°C° 0 mm 5 mps 743 mmHg 70%
    23:00 +15°C° 0 mm 5 mps 743 mmHg 71%

    Day after tomorrow, 21 August, Tuesday

    Time Temperature Precipitation Wind Pressure Humidity
    00:00 +15°C° 0 mm 5 mps 743 mmHg 72%
    01:00 +15°C° 0 mm 5 mps 743 mmHg 72%
    02:00 +14°C° 0 mm 5 mps 744 mmHg 74%
    03:00 +14°C° 0 mm 5 mps 744 mmHg 76%
    04:00 +14°C° 0 mm 4 mps 744 mmHg 78%
    05:00 +15°C° 0 mm 5 mps 745 mmHg 75%
    06:00 +16°C° 0 mm 5 mps 745 mmHg 73%
    07:00 +17°C° 0 mm 5 mps 746 mmHg 71%
    08:00 +19°C° 0 mm 5 mps 746 mmHg 65%
    09:00 +20°C° 0 mm 5 mps 747 mmHg 59%
    10:00 +21°C° 0 mm 5 mps 747 mmHg 54%
    11:00 +21°C° 0 mm 4 mps 748 mmHg 51%
    12:00 +22°C° 0 mm 4 mps 748 mmHg 48%
    13:00 +22°C° 0 mm 4 mps 748 mmHg 45%
    14:00 +22°C° 0 mm 4 mps 748 mmHg 45%
    15:00 +22°C° 0 mm 4 mps 748 mmHg 45%
    16:00 +22°C° 0 mm 3 mps 748 mmHg 46%
    17:00 +20°C° 0 mm 3 mps 748 mmHg 52%
    18:00 +18°C° 0 mm 2 mps 748 mmHg 58%
    19:00 +17°C° 0 mm 2 mps 748 mmHg 65%
    20:00 +16°C° 0 mm 2 mps 749 mmHg 68%
    21:00 +15°C° 0 mm 1 mps 749 mmHg 71%
    22:00 +14°C° 0 mm 1 mps 749 mmHg 74%
    23:00 +14°C° 0 mm 1 mps 749 mmHg 75%

    22 August, Wednesday

    Time Temperature Precipitation Wind Pressure Humidity
    00:00 +14°C° 0 mm 1 mps 749 mmHg 77%
    01:00 +13°C° 0 mm 2 mps 749 mmHg 78%
    02:00 +13°C° 0 mm 2 mps 749 mmHg 79%
    03:00 +13°C° 0 mm 2 mps 749 mmHg 80%
    04:00 +13°C° 0 mm 2 mps 749 mmHg 81%
    05:00 +14°C° 0 mm 2 mps 749 mmHg 76%
    06:00 +15°C° 0 mm 2 mps 749 mmHg 72%
    07:00 +16°C° 0 mm 3 mps 749 mmHg 68%
    08:00 +18°C° 0 mm 3 mps 749 mmHg 62%
    09:00 +20°C° 0 mm 3 mps 749 mmHg 57%
    10:00 +22°C° 0 mm 3 mps 749 mmHg 51%
    11:00 +24°C° 0 mm 3 mps 749 mmHg 48%
    12:00 +25°C° 0 mm 3 mps 749 mmHg 45%
    13:00 +26°C° 0 mm 3 mps 748 mmHg 42%
    14:00 +26°C° 0 mm 3 mps 748 mmHg 41%
    15:00 +27°C° 0 mm 3 mps 748 mmHg 41%
    16:00 +27°C° 0 mm 3 mps 747 mmHg 41%
    17:00 +25°C° 0 mm 3 mps 747 mmHg 47%
    18:00 +22°C° 0 mm 3 mps 746 mmHg 53%
    19:00 +21°C° 0 mm 2 mps 746 mmHg 59%
    20:00 +20°C° 0 mm 3 mps 746 mmHg 60%
    21:00 +19°C° 0 mm 3 mps 746 mmHg 62%
    22:00 +19°C° 0 mm 4 mps 746 mmHg 63%
    23:00 +19°C° 0 mm 4 mps 746 mmHg 62%

    23 August, Thursday

    Time Temperature Precipitation Wind Pressure Humidity
    00:00 +19°C° 0 mm 4 mps 745 mmHg 62%
    01:00 +18°C° 0 mm 4 mps 745 mmHg 61%
    02:00 +18°C° 0 mm 4 mps 745 mmHg 61%
    03:00 +18°C° 0 mm 4 mps 745 mmHg 61%
    04:00 +18°C° 0 mm 4 mps 744 mmHg 61%
    05:00 +18°C° 0 mm 4 mps 744 mmHg 62%
    06:00 +19°C° 0 mm 3 mps 744 mmHg 63%
    07:00 +19°C° 0 mm 3 mps 744 mmHg 64%
    08:00 +20°C° 0 mm 3 mps 744 mmHg 62%
    09:00 +21°C° 0 mm 3 mps 744 mmHg 60%
    10:00 +22°C° 0 mm 3 mps 744 mmHg 58%
    11:00 +24°C° 0 mm 3 mps 744 mmHg 56%
    12:00 +25°C° 0 mm 3 mps 744 mmHg 54%
    13:00 +25°C° 0 mm 3 mps 743 mmHg 52%
    14:00 +26°C° 0 mm 3 mps 743 mmHg 51%
    15:00 +27°C° 0 mm 3 mps 743 mmHg 50%
    16:00 +27°C° 0 mm 3 mps 742 mmHg 49%
    17:00 +26°C° 0 mm 3 mps 742 mmHg 53%
    18:00 +25°C° 0 mm 2 mps 741 mmHg 58%
    19:00 +23°C° 0 mm 2 mps 741 mmHg 62%
    20:00 +23°C° 0 mm 2 mps 741 mmHg 64%
    21:00 +21°C° 0 mm 2 mps 741 mmHg 66%
    22:00 +20°C° 0 mm 3 mps 740 mmHg 68%
    23:00 +20°C° 0 mm 3 mps 740 mmHg 68%

    24 August, Friday

    Time Temperature Precipitation Wind Pressure Humidity
    00:00 +20°C° 0 mm 3 mps 740 mmHg 68%
    01:00 +20°C° 0 mm 3 mps 739 mmHg 68%
    02:00 +20°C° 0 mm 3 mps 739 mmHg 65%
    03:00 +20°C° 0 mm 4 mps 739 mmHg 62%
    04:00 +20°C° 0 mm 4 mps 738 mmHg 60%
    05:00 +21°C° 0 mm 4 mps 738 mmHg 59%
    06:00 +21°C° 0 mm 4 mps 738 mmHg 58%
    07:00 +22°C° 0 mm 4 mps 738 mmHg 57%
    08:00 +23°C° 0.3 mm 4 mps 737 mmHg 58%
    09:00 +25°C° 0.3 mm 4 mps 737 mmHg 59%
    10:00 +26°C° 0.3 mm 4 mps 737 mmHg 60%
    11:00 +27°C° 0.2 mm 4 mps 736 mmHg 56%
    12:00 +28°C° 0.2 mm 4 mps 736 mmHg 53%
    13:00 +29°C° 0.2 mm 4 mps 736 mmHg 50%
    14:00 +28°C° 0.7 mm 4 mps 736 mmHg 57%
    15:00 +26°C° 0.7 mm 4 mps 736 mmHg 64%
    16:00 +25°C° 0.7 mm 4 mps 735 mmHg 71%
    17:00 +22°C° 2 mm 5 mps 736 mmHg 77%
    18:00 +20°C° 2 mm 5 mps 736 mmHg 83%
    19:00 +16°C° 2 mm 6 mps 736 mmHg 89%
    20:00 +16°C° 1.1 mm 5 mps 736 mmHg 89%
    21:00 +15°C° 1.1 mm 5 mps 737 mmHg 88%
    22:00 +14°C° 1.1 mm 4 mps 737 mmHg 88%
    23:00 +14°C° 0 mm 4 mps 738 mmHg 89%
    Show more